WXM80 ListenWXM80 Stop

You find our weather info also at:

UK Metoffice

WeatherCloud

Weather Underground

Northeastern Weather Network

AWEKAS

Citizen Weather Observer Program (CWOP)

HAMweather, WeatherForYou, PWS Weather


Weather Underground History page Text

Daily Summary for December 24, 2017 Units:  English    Metric   Both
« Previous Day
Next Day »
Daily Weekly Monthly Yearly Custom
  High: Low: Average:
Temperature: 43.3 °F 36.7 °F 39.1 °F
Dew Point: 41.1 °F 29.4 °F 32.9 °F
Humidity: 94 % 65 % 79 %
Wind Speed: 12.3 mph 0.9 mph 6.2 mph
Wind Gust: 18.4 mph - -
Wind:- - SE
Pressure: 30.23 in 29.85 in -
Precipitation: 0.00 in    
Historical Graphs
 
 
Tabular Data for December 24, 2017
Time Temperature Dew Point Pressure Wind Wind Speed Wind Gust Humidity Rainfall Rate (Hourly)
00:03 43.3 °F 41.1 °F 29.92 in NNW 3.7 mph 11.5 mph 92 % 0.00 in
00:07 43.2 °F 41.0 °F 29.92 in North 2.3 mph 6.9 mph 92 % 0.00 in
00:12 43.1 °F 40.9 °F 29.93 in NNW 4.9 mph 6.9 mph 92 % 0.00 in
00:13 43.1 °F 40.7 °F 29.93 in NNW 4.4 mph 8.1 mph 91 % 0.00 in
00:14 43.1 °F 40.7 °F 29.93 in NNW 4.1 mph 9.2 mph 91 % 0.00 in
00:19 42.9 °F 40.5 °F 29.94 in North 5.0 mph 6.9 mph 91 % 0.00 in
00:20 42.9 °F 40.5 °F 29.94 in NNW 3.0 mph 8.1 mph 91 % 0.00 in
00:22 42.9 °F 40.5 °F 29.94 in NNE 3.7 mph 6.9 mph 91 % 0.00 in
00:27 42.8 °F 40.4 °F 29.95 in NNE 3.9 mph 11.5 mph 91 % 0.00 in
00:28 42.8 °F 40.4 °F 29.95 in North 5.9 mph 11.5 mph 91 % 0.00 in
00:34 42.7 °F 40.3 °F 29.95 in North 4.7 mph 6.9 mph 91 % 0.00 in
00:35 42.7 °F 40.3 °F 29.95 in North 2.9 mph 6.9 mph 91 % 0.00 in
00:39 42.7 °F 40.3 °F 29.95 in North 2.6 mph 8.0 mph 91 % 0.00 in
00:42 42.7 °F 40.3 °F 29.96 in WNW 3.6 mph 6.9 mph 91 % 0.00 in
00:48 42.7 °F 40.3 °F 29.96 in NNW 3.6 mph 3.6 mph 91 % 0.00 in
00:51 42.7 °F 40.3 °F 29.95 in NW 2.0 mph 7.0 mph 91 % 0.00 in
00:52 42.7 °F 40.3 °F 29.95 in NW 1.8 mph 3.5 mph 91 % 0.00 in
00:57 42.7 °F 40.5 °F 29.95 in NNW 3.4 mph 4.6 mph 92 % 0.00 in
00:59 42.7 °F 40.5 °F 29.95 in NNW 4.2 mph 9.2 mph 92 % 0.00 in
01:02 42.7 °F 40.5 °F 29.96 in WNW 4.3 mph 9.2 mph 92 % 0.00 in
01:05 42.6 °F 40.2 °F 29.96 in WNW 4.6 mph 8.1 mph 91 % 0.00 in
01:08 42.6 °F 40.2 °F 29.96 in NW 2.6 mph 7.0 mph 91 % 0.00 in
01:13 42.5 °F 40.1 °F 29.97 in NNW 3.6 mph 6.9 mph 91 % 0.00 in
01:14 42.4 °F 40.0 °F 29.97 in NW 4.0 mph 9.2 mph 91 % 0.00 in
01:17 42.4 °F 40.0 °F 29.97 in WNW 1.4 mph 3.5 mph 91 % 0.00 in
01:20 42.3 °F 39.9 °F 29.97 in NNW 3.3 mph 5.8 mph 91 % 0.00 in
01:25 42.2 °F 39.5 °F 29.98 in WNW 3.5 mph 5.8 mph 90 % 0.00 in
01:26 42.2 °F 39.5 °F 29.99 in NNW 3.4 mph 6.9 mph 90 % 0.00 in
01:31 42.1 °F 39.4 °F 30.00 in NNW 4.1 mph 12.7 mph 90 % 0.00 in
01:35 42.0 °F 39.3 °F 30.01 in WSW 3.1 mph 9.0 mph 90 % 0.00 in
01:41 41.9 °F 38.9 °F 30.00 in NW 5.0 mph 10.0 mph 89 % 0.00 in
01:42 41.9 °F 38.9 °F 30.00 in North 2.5 mph 9.2 mph 89 % 0.00 in
01:47 41.8 °F 38.8 °F 30.01 in NW 3.2 mph 6.9 mph 89 % 0.00 in
01:53 41.8 °F 39.1 °F 30.01 in NW 3.1 mph 6.9 mph 90 % 0.00 in
01:58 41.8 °F 39.1 °F 30.02 in WNW 3.2 mph 4.0 mph 90 % 0.00 in
02:03 41.7 °F 38.7 °F 30.02 in NNW 4.3 mph 6.0 mph 89 % 0.00 in
02:06 41.6 °F 38.6 °F 30.02 in SSW 1.4 mph 4.6 mph 89 % 0.00 in
02:11 41.5 °F 38.5 °F 30.01 in NNW 3.8 mph 6.9 mph 89 % 0.00 in
02:13 41.5 °F 38.2 °F 30.02 in NW 4.3 mph 5.0 mph 88 % 0.00 in
02:15 41.4 °F 38.1 °F 30.02 in NNW 3.1 mph 6.9 mph 88 % 0.00 in
02:18 41.4 °F 38.1 °F 30.02 in North 2.7 mph 5.0 mph 88 % 0.00 in
02:24 41.2 °F 37.9 °F 30.03 in NW 2.7 mph 6.0 mph 88 % 0.00 in
02:29 41.1 °F 37.8 °F 30.03 in NW 5.8 mph 9.2 mph 88 % 0.00 in
02:33 40.9 °F 37.3 °F 30.05 in WNW 4.0 mph 8.1 mph 87 % 0.00 in
02:36 40.9 °F 37.3 °F 30.05 in WNW 2.0 mph 9.2 mph 87 % 0.00 in
02:39 40.9 °F 37.3 °F 30.06 in WNW 5.7 mph 6.9 mph 87 % 0.00 in
02:44 40.7 °F 37.1 °F 30.06 in NW 4.7 mph 7.0 mph 87 % 0.00 in
02:49 40.7 °F 37.1 °F 30.06 in NW 2.2 mph 9.0 mph 87 % 0.00 in
02:54 40.6 °F 37.0 °F 30.04 in NW 3.9 mph 8.0 mph 87 % 0.00 in
02:59 40.6 °F 37.0 °F 30.04 in West 4.9 mph 6.9 mph 87 % 0.00 in
03:02 40.6 °F 37.0 °F 30.05 in NW 3.7 mph 8.0 mph 87 % 0.00 in
03:07 40.5 °F 36.9 °F 30.05 in WNW 3.1 mph 6.9 mph 87 % 0.00 in
03:09 40.5 °F 36.9 °F 30.05 in North 4.3 mph 7.0 mph 87 % 0.00 in
03:14 40.5 °F 36.9 °F 30.06 in WNW 1.2 mph 3.5 mph 87 % 0.00 in
03:19 40.4 °F 36.8 °F 30.07 in NNW 4.2 mph 6.9 mph 87 % 0.00 in
03:23 40.4 °F 36.5 °F 30.07 in NW 1.5 mph 3.5 mph 86 % 0.00 in
03:28 40.4 °F 36.5 °F 30.09 in NW 4.1 mph 8.1 mph 86 % 0.00 in
03:30 40.4 °F 36.5 °F 30.08 in NNW 4.1 mph 10.4 mph 86 % 0.00 in
03:32 40.4 °F 36.5 °F 30.07 in North 4.4 mph 8.1 mph 86 % 0.00 in
03:37 40.3 °F 36.4 °F 30.09 in North 4.3 mph 9.2 mph 86 % 0.00 in
03:41 40.2 °F 36.3 °F 30.09 in NW 2.9 mph 5.8 mph 86 % 0.00 in
03:46 40.2 °F 36.3 °F 30.09 in NW 0.9 mph 3.5 mph 86 % 0.00 in
03:50 40.1 °F 36.2 °F 30.09 in NNW 1.8 mph 3.5 mph 86 % 0.00 in
03:55 40.1 °F 36.2 °F 30.08 in NNW 3.8 mph 5.8 mph 86 % 0.00 in
03:57 40.1 °F 36.2 °F 30.09 in NNW 2.7 mph 6.9 mph 86 % 0.00 in
04:00 40.0 °F 36.2 °F 30.09 in NW 1.7 mph 4.6 mph 86 % 0.00 in
04:04 39.9 °F 35.8 °F 30.10 in NW 1.3 mph 8.1 mph 85 % 0.00 in
04:09 39.9 °F 36.1 °F 30.10 in North 5.2 mph 6.9 mph 86 % 0.00 in
04:10 39.8 °F 36.0 °F 30.10 in North 4.8 mph 8.1 mph 86 % 0.00 in
04:15 39.8 °F 35.7 °F 30.09 in NNW 3.6 mph 9.0 mph 85 % 0.00 in
04:17 39.7 °F 35.6 °F 30.09 in North 3.6 mph 5.8 mph 85 % 0.00 in
04:19 39.7 °F 35.6 °F 30.09 in NNW 4.1 mph 5.8 mph 85 % 0.00 in
04:24 39.6 °F 35.5 °F 30.09 in North 7.2 mph 8.1 mph 85 % 0.00 in
04:26 39.5 °F 35.1 °F 30.09 in NNE 9.0 mph 12.7 mph 84 % 0.00 in
04:31 39.4 °F 35.3 °F 30.10 in North 5.0 mph 10.0 mph 85 % 0.00 in
04:33 39.4 °F 35.0 °F 30.10 in NNE 5.7 mph 7.0 mph 84 % 0.00 in
04:38 39.2 °F 34.8 °F 30.09 in North 7.6 mph 12.0 mph 84 % 0.00 in
04:41 39.2 °F 34.8 °F 30.10 in NNE 5.8 mph 8.1 mph 84 % 0.00 in
04:44 39.1 °F 34.4 °F 30.10 in North 4.7 mph 7.0 mph 83 % 0.00 in
04:49 38.9 °F 34.2 °F 30.09 in NNW 6.5 mph 10.4 mph 83 % 0.00 in
04:54 38.7 °F 33.7 °F 30.10 in North 7.1 mph 8.0 mph 82 % 0.00 in
04:55 38.6 °F 33.6 °F 30.11 in North 6.8 mph 11.5 mph 82 % 0.00 in
04:59 38.6 °F 33.6 °F 30.11 in NNE 6.1 mph 11.5 mph 82 % 0.00 in
05:04 38.4 °F 33.4 °F 30.11 in NE 6.6 mph 11.0 mph 82 % 0.00 in
05:05 38.4 °F 33.4 °F 30.11 in NNW 8.1 mph 10.4 mph 82 % 0.00 in
05:10 38.3 °F 33.3 °F 30.11 in NNE 3.6 mph 5.8 mph 82 % 0.00 in
05:12 38.2 °F 33.2 °F 30.11 in NNE 6.4 mph 9.0 mph 82 % 0.00 in
05:17 38.2 °F 33.2 °F 30.11 in North 4.9 mph 10.4 mph 82 % 0.00 in
05:22 38.1 °F 33.4 °F 30.12 in NNE 4.4 mph 6.9 mph 83 % 0.00 in
05:31 37.9 °F 33.2 °F 30.12 in North 3.8 mph 8.1 mph 83 % 0.00 in
05:36 37.8 °F 33.1 °F 30.12 in NW 5.0 mph 9.0 mph 83 % 0.00 in
05:37 37.8 °F 33.1 °F 30.12 in NNW 5.0 mph 5.0 mph 83 % 0.00 in
05:42 37.8 °F 32.8 °F 30.12 in NNW 4.1 mph 8.0 mph 82 % 0.00 in
05:48 37.8 °F 32.8 °F 30.12 in North 4.0 mph 6.9 mph 82 % 0.00 in
05:53 37.8 °F 32.8 °F 30.13 in NNW 2.8 mph 6.9 mph 82 % 0.00 in
05:58 37.7 °F 32.7 °F 30.13 in NNW 6.6 mph 10.4 mph 82 % 0.00 in
05:59 37.7 °F 32.7 °F 30.13 in North 2.9 mph 10.4 mph 82 % 0.00 in
06:04 37.7 °F 32.7 °F 30.13 in NNE 1.7 mph 3.5 mph 82 % 0.00 in
06:06 37.7 °F 32.7 °F 30.13 in NW 5.6 mph 8.1 mph 82 % 0.00 in
06:07 37.7 °F 32.7 °F 30.13 in North 5.2 mph 8.1 mph 82 % 0.00 in
06:12 37.6 °F 32.3 °F 30.14 in North 3.3 mph 7.0 mph 81 % 0.00 in
06:13 37.6 °F 32.3 °F 30.14 in NNW 4.6 mph 8.1 mph 81 % 0.00 in
06:14 37.6 °F 32.3 °F 30.14 in North 6.3 mph 10.0 mph 81 % 0.00 in
06:19 37.5 °F 32.2 °F 30.14 in NNW 1.9 mph 3.5 mph 81 % 0.00 in
06:20 37.5 °F 32.2 °F 30.14 in NNW 2.5 mph 4.6 mph 81 % 0.00 in
06:21 37.5 °F 32.2 °F 30.14 in North 2.8 mph 7.0 mph 81 % 0.00 in
06:26 37.5 °F 32.2 °F 30.14 in North 2.9 mph 9.2 mph 81 % 0.00 in
06:27 37.5 °F 32.2 °F 30.14 in North 3.7 mph 9.2 mph 81 % 0.00 in
06:32 37.5 °F 32.2 °F 30.14 in North 4.5 mph 9.2 mph 81 % 0.00 in
06:35 37.4 °F 32.1 °F 30.14 in NNE 4.0 mph 6.9 mph 81 % 0.00 in
06:40 37.4 °F 32.1 °F 30.14 in North 2.5 mph 4.6 mph 81 % 0.00 in
06:45 37.4 °F 32.1 °F 30.15 in North 4.4 mph 8.1 mph 81 % 0.00 in
06:50 37.4 °F 32.1 °F 30.14 in North 4.0 mph 5.8 mph 81 % 0.00 in
06:55 37.3 °F 31.7 °F 30.15 in North 4.8 mph 8.1 mph 80 % 0.00 in
07:00 37.3 °F 31.7 °F 30.15 in NNW 5.7 mph 9.0 mph 80 % 0.00 in
07:02 37.3 °F 31.7 °F 30.15 in North 4.7 mph 8.0 mph 80 % 0.00 in
07:05 37.3 °F 31.7 °F 30.15 in NNE 3.7 mph 9.2 mph 80 % 0.00 in
07:08 37.2 °F 31.6 °F 30.16 in NNW 4.3 mph 8.1 mph 80 % 0.00 in
07:13 37.2 °F 31.6 °F 30.16 in North 4.2 mph 8.1 mph 80 % 0.00 in
07:14 37.2 °F 31.6 °F 30.16 in North 4.5 mph 6.0 mph 80 % 0.00 in
07:19 37.1 °F 31.5 °F 30.16 in NNE 4.3 mph 8.1 mph 80 % 0.00 in
07:22 37.1 °F 31.5 °F 30.15 in NNE 6.4 mph 8.1 mph 80 % 0.00 in
07:27 37.0 °F 31.1 °F 30.15 in NNE 4.9 mph 6.9 mph 79 % 0.00 in
07:29 37.0 °F 31.1 °F 30.15 in NNW 5.8 mph 9.2 mph 79 % 0.00 in
07:34 37.0 °F 31.4 °F 30.15 in North 3.4 mph 5.8 mph 80 % 0.00 in
07:37 36.9 °F 31.3 °F 30.16 in NNE 4.0 mph 4.6 mph 80 % 0.00 in
07:42 36.9 °F 31.6 °F 30.16 in NNE 5.4 mph 8.1 mph 81 % 0.00 in
07:46 36.9 °F 31.6 °F 30.16 in North 6.3 mph 11.5 mph 81 % 0.00 in
07:51 37.0 °F 31.7 °F 30.16 in NE 8.1 mph 11.5 mph 81 % 0.00 in
07:56 37.0 °F 31.1 °F 30.17 in North 9.1 mph 12.7 mph 79 % 0.00 in
07:58 37.0 °F 30.8 °F 30.17 in NNE 5.1 mph 8.1 mph 78 % 0.00 in
08:03 37.0 °F 30.8 °F 30.17 in NNW 5.3 mph 8.0 mph 78 % 0.00 in
08:04 37.0 °F 30.8 °F 30.17 in North 7.3 mph 11.5 mph 78 % 0.00 in
08:09 37.0 °F 30.8 °F 30.17 in North 5.7 mph 11.5 mph 78 % 0.00 in
08:10 37.0 °F 30.8 °F 30.18 in NE 5.3 mph 8.1 mph 78 % 0.00 in
08:11 37.0 °F 30.8 °F 30.18 in NNE 7.0 mph 10.4 mph 78 % 0.00 in
08:16 36.9 °F 30.4 °F 30.18 in NE 5.3 mph 12.0 mph 77 % 0.00 in
08:17 36.9 °F 30.4 °F 30.18 in North 8.5 mph 11.5 mph 77 % 0.00 in
08:22 36.8 °F 30.3 °F 30.19 in NNE 6.0 mph 8.1 mph 77 % 0.00 in
08:24 36.9 °F 30.7 °F 30.19 in NNE 5.0 mph 5.0 mph 78 % 0.00 in
08:29 36.9 °F 30.4 °F 30.19 in North 5.0 mph 10.4 mph 77 % 0.00 in
08:33 36.8 °F 30.3 °F 30.19 in NNE 6.8 mph 12.0 mph 77 % 0.00 in
08:36 36.9 °F 30.4 °F 30.19 in NNE 7.2 mph 13.8 mph 77 % 0.00 in
08:39 36.9 °F 30.4 °F 30.19 in North 3.6 mph 6.0 mph 77 % 0.00 in
08:44 37.0 °F 30.1 °F 30.20 in NNE 6.8 mph 10.4 mph 76 % 0.00 in
08:45 37.0 °F 30.1 °F 30.20 in North 6.5 mph 11.5 mph 76 % 0.00 in
08:50 37.1 °F 30.2 °F 30.21 in NNE 5.9 mph 9.2 mph 76 % 0.00 in
08:55 37.3 °F 30.4 °F 30.22 in NNE 5.8 mph 9.2 mph 76 % 0.00 in
08:58 37.4 °F 30.2 °F 30.21 in NNW 6.1 mph 11.5 mph 75 % 0.00 in
09:03 37.5 °F 30.0 °F 30.21 in NNE 8.9 mph 12.0 mph 74 % 0.00 in
09:08 37.5 °F 29.6 °F 30.22 in ENE 10.3 mph 12.7 mph 73 % 0.00 in
09:11 37.6 °F 29.4 °F 30.22 in NNE 5.9 mph 11.5 mph 72 % 0.00 in
09:14 37.7 °F 30.2 °F 30.22 in NNE 7.5 mph 9.2 mph 74 % 0.00 in
09:17 37.7 °F 29.8 °F 30.22 in NNE 6.6 mph 11.5 mph 73 % 0.00 in
09:22 37.8 °F 29.6 °F 30.22 in NE 8.7 mph 11.5 mph 72 % 0.00 in
09:26 37.9 °F 30.0 °F 30.22 in North 9.1 mph 16.1 mph 73 % 0.00 in
09:31 38.0 °F 29.8 °F 30.22 in North 6.8 mph 12.0 mph 72 % 0.00 in
09:36 38.2 °F 30.0 °F 30.22 in NE 7.8 mph 10.4 mph 72 % 0.00 in
09:42 38.3 °F 30.1 °F 30.23 in NE 6.6 mph 9.2 mph 72 % 0.00 in
09:44 38.4 °F 29.8 °F 30.23 in NE 7.7 mph 11.5 mph 71 % 0.00 in
09:49 38.6 °F 30.0 °F 30.23 in North 7.3 mph 11.5 mph 71 % 0.00 in
09:54 38.8 °F 29.8 °F 30.22 in NNE 9.8 mph 15.0 mph 70 % 0.00 in
09:55 38.8 °F 29.8 °F 30.22 in North 8.1 mph 12.7 mph 70 % 0.00 in
10:00 39.0 °F 30.0 °F 30.22 in NE 7.3 mph 11.5 mph 70 % 0.00 in
10:02 39.1 °F 30.1 °F 30.22 in NNE 6.5 mph 10.4 mph 70 % 0.00 in
10:07 39.2 °F 29.9 °F 30.22 in NNE 4.9 mph 9.2 mph 69 % 0.00 in
10:08 39.3 °F 30.0 °F 30.22 in NE 4.8 mph 9.2 mph 69 % 0.00 in
10:10 39.3 °F 30.0 °F 30.22 in North 6.9 mph 9.2 mph 69 % 0.00 in
10:15 39.4 °F 30.1 °F 30.22 in NNE 4.3 mph 6.9 mph 69 % 0.00 in
10:16 39.4 °F 30.4 °F 30.22 in NNE 5.0 mph 10.0 mph 70 % 0.00 in
10:20 39.5 °F 30.5 °F 30.22 in North 4.7 mph 9.2 mph 70 % 0.00 in
10:25 39.6 °F 30.6 °F 30.22 in NE 2.8 mph 9.2 mph 70 % 0.00 in
10:29 39.6 °F 30.6 °F 30.21 in NE 5.5 mph 8.1 mph 70 % 0.00 in
10:33 39.7 °F 30.0 °F 30.21 in NNE 6.0 mph 10.4 mph 68 % 0.00 in
10:38 39.8 °F 30.1 °F 30.22 in NE 4.8 mph 5.8 mph 68 % 0.00 in
10:39 39.9 °F 30.5 °F 30.22 in NNE 3.7 mph 8.0 mph 69 % 0.00 in
10:44 40.0 °F 30.6 °F 30.22 in North 6.7 mph 9.2 mph 69 % 0.00 in
10:48 40.1 °F 30.7 °F 30.21 in NNE 5.0 mph 9.2 mph 69 % 0.00 in
10:52 40.1 °F 30.0 °F 30.21 in NNE 5.1 mph 8.1 mph 67 % 0.00 in
10:53 40.2 °F 30.1 °F 30.21 in NNE 4.3 mph 6.9 mph 67 % 0.00 in
10:58 40.2 °F 30.5 °F 30.21 in NNE 5.1 mph 10.4 mph 68 % 0.00 in
10:59 40.2 °F 30.5 °F 30.21 in North 4.5 mph 6.9 mph 68 % 0.00 in
11:01 40.3 °F 30.6 °F 30.21 in ENE 3.8 mph 6.9 mph 68 % 0.00 in
11:06 40.3 °F 30.6 °F 30.21 in North 5.3 mph 8.1 mph 68 % 0.00 in
11:09 40.2 °F 30.1 °F 30.21 in ENE 5.7 mph 10.4 mph 67 % 0.00 in
11:15 40.1 °F 30.4 °F 30.20 in NNE 4.3 mph 7.0 mph 68 % 0.00 in
11:20 40.1 °F 30.0 °F 30.20 in NE 7.5 mph 10.4 mph 67 % 0.00 in
11:21 40.1 °F 30.0 °F 30.20 in NNE 6.2 mph 10.4 mph 67 % 0.00 in
11:26 40.1 °F 30.0 °F 30.20 in NNE 6.1 mph 10.0 mph 67 % 0.00 in
11:30 40.1 °F 30.0 °F 30.19 in NNE 4.8 mph 9.2 mph 67 % 0.00 in
11:31 40.1 °F 30.0 °F 30.19 in NE 5.0 mph 10.0 mph 67 % 0.00 in
11:36 40.2 °F 30.5 °F 30.19 in NE 3.0 mph 10.0 mph 68 % 0.00 in
11:37 40.2 °F 30.8 °F 30.19 in North 3.1 mph 10.4 mph 69 % 0.00 in
11:42 40.4 °F 30.7 °F 30.20 in NNE 7.5 mph 9.2 mph 68 % 0.00 in
11:45 40.5 °F 30.8 °F 30.20 in NNE 5.0 mph 10.4 mph 68 % 0.00 in
11:50 40.7 °F 30.6 °F 30.19 in NNE 4.7 mph 8.1 mph 67 % 0.00 in
11:52 40.7 °F 30.6 °F 30.19 in NNE 6.2 mph 9.2 mph 67 % 0.00 in
11:57 40.8 °F 30.7 °F 30.19 in North 5.0 mph 8.1 mph 67 % 0.00 in
12:02 40.9 °F 30.8 °F 30.19 in NE 7.5 mph 10.4 mph 67 % 0.00 in
12:07 40.9 °F 30.8 °F 30.19 in NNE 8.0 mph 11.5 mph 67 % 0.00 in
12:12 40.9 °F 30.4 °F 30.19 in NE 6.4 mph 10.0 mph 66 % 0.00 in
12:13 40.9 °F 30.4 °F 30.19 in NE 3.3 mph 10.4 mph 66 % 0.00 in
12:19 40.9 °F 30.4 °F 30.19 in NE 4.4 mph 8.0 mph 66 % 0.00 in
12:21 41.0 °F 30.5 °F 30.19 in NE 2.6 mph 5.0 mph 66 % 0.00 in
12:26 41.0 °F 30.9 °F 30.19 in NE 2.4 mph 3.5 mph 67 % 0.00 in
12:31 40.9 °F 30.4 °F 30.19 in ENE 5.1 mph 9.2 mph 66 % 0.00 in
12:34 40.9 °F 30.8 °F 30.19 in NNE 3.4 mph 5.8 mph 67 % 0.00 in
12:39 40.9 °F 30.8 °F 30.18 in ENE 4.9 mph 9.0 mph 67 % 0.00 in
12:40 40.9 °F 30.4 °F 30.18 in ENE 5.5 mph 6.9 mph 66 % 0.00 in
12:45 40.7 °F 29.8 °F 30.18 in ENE 4.5 mph 9.2 mph 65 % 0.00 in
12:47 40.5 °F 29.7 °F 30.17 in NE 4.0 mph 8.1 mph 65 % 0.00 in
12:51 40.5 °F 30.0 °F 30.17 in NNE 5.3 mph 8.1 mph 66 % 0.00 in
12:54 40.6 °F 30.5 °F 30.17 in East 3.5 mph 7.0 mph 67 % 0.00 in
12:58 40.5 °F 30.0 °F 30.17 in ENE 3.5 mph 10.0 mph 66 % 0.00 in
13:00 40.5 °F 29.7 °F 30.16 in ENE 4.2 mph 10.4 mph 65 % 0.00 in
13:05 40.3 °F 29.5 °F 30.16 in ENE 5.7 mph 9.2 mph 65 % 0.00 in
13:08 40.3 °F 29.8 °F 30.16 in ENE 5.4 mph 10.4 mph 66 % 0.00 in
13:13 40.4 °F 30.7 °F 30.17 in ENE 2.3 mph 4.6 mph 68 % 0.00 in
13:14 40.4 °F 30.7 °F 30.17 in NE 2.4 mph 3.5 mph 68 % 0.00 in
13:19 40.3 °F 29.8 °F 30.17 in ENE 4.0 mph 11.5 mph 66 % 0.00 in
13:20 40.3 °F 29.8 °F 30.17 in NE 3.6 mph 6.9 mph 66 % 0.00 in
13:25 40.2 °F 29.7 °F 30.17 in ENE 5.5 mph 9.2 mph 66 % 0.00 in
13:30 40.1 °F 30.0 °F 30.17 in NE 7.9 mph 10.4 mph 67 % 0.00 in
13:35 40.0 °F 29.9 °F 30.17 in ENE 5.3 mph 8.1 mph 67 % 0.00 in
13:36 39.9 °F 30.2 °F 30.17 in ENE 4.8 mph 8.1 mph 68 % 0.00 in
13:41 39.9 °F 30.2 °F 30.17 in NE 5.1 mph 6.9 mph 68 % 0.00 in
13:43 39.8 °F 30.5 °F 30.17 in East 6.1 mph 9.2 mph 69 % 0.00 in
13:48 39.9 °F 30.9 °F 30.17 in East 6.0 mph 9.2 mph 70 % 0.00 in
13:53 40.0 °F 30.6 °F 30.17 in ENE 6.0 mph 9.2 mph 69 % 0.00 in
13:58 40.0 °F 30.6 °F 30.16 in ENE 6.3 mph 9.2 mph 69 % 0.00 in
14:00 40.0 °F 30.6 °F 30.16 in East 6.4 mph 8.1 mph 69 % 0.00 in
14:05 40.0 °F 30.6 °F 30.15 in ENE 6.0 mph 8.1 mph 69 % 0.00 in
14:11 39.9 °F 30.5 °F 30.15 in East 5.6 mph 6.9 mph 69 % 0.00 in
14:13 39.9 °F 30.9 °F 30.16 in ENE 4.7 mph 8.1 mph 70 % 0.00 in
14:18 39.8 °F 30.5 °F 30.16 in East 5.4 mph 9.0 mph 69 % 0.00 in
14:23 39.7 °F 30.0 °F 30.15 in NE 4.5 mph 8.1 mph 68 % 0.00 in
14:27 39.7 °F 30.4 °F 30.16 in ENE 4.6 mph 8.1 mph 69 % 0.00 in
14:32 39.6 °F 30.6 °F 30.15 in East 6.4 mph 10.4 mph 70 % 0.00 in
14:33 39.7 °F 30.4 °F 30.15 in East 5.6 mph 8.1 mph 69 % 0.00 in
14:35 39.7 °F 30.7 °F 30.15 in ENE 3.8 mph 6.9 mph 70 % 0.00 in
14:40 39.6 °F 30.3 °F 30.16 in East 5.0 mph 9.2 mph 69 % 0.00 in
14:41 39.6 °F 30.6 °F 30.16 in East 7.0 mph 8.1 mph 70 % 0.00 in
14:45 39.5 °F 30.5 °F 30.15 in ENE 6.3 mph 10.0 mph 70 % 0.00 in
14:50 39.4 °F 29.7 °F 30.15 in East 6.5 mph 8.1 mph 68 % 0.00 in
14:55 39.3 °F 30.3 °F 30.15 in East 6.5 mph 11.5 mph 70 % 0.00 in
14:58 39.3 °F 30.7 °F 30.15 in ENE 7.3 mph 9.2 mph 71 % 0.00 in
15:03 39.3 °F 31.0 °F 30.15 in East 4.9 mph 6.9 mph 72 % 0.00 in
15:08 39.2 °F 30.9 °F 30.15 in East 7.9 mph 10.4 mph 72 % 0.00 in
15:10 39.2 °F 30.9 °F 30.14 in East 6.5 mph 9.2 mph 72 % 0.00 in
15:15 39.1 °F 31.5 °F 30.14 in ENE 7.5 mph 9.2 mph 74 % 0.00 in
15:18 39.1 °F 31.2 °F 30.14 in East 6.6 mph 8.1 mph 73 % 0.00 in
15:23 39.0 °F 30.7 °F 30.14 in ENE 7.2 mph 12.7 mph 72 % 0.00 in
15:28 38.9 °F 30.3 °F 30.14 in ENE 7.2 mph 11.5 mph 71 % 0.00 in
15:33 38.8 °F 30.5 °F 30.14 in ENE 6.5 mph 11.5 mph 72 % 0.00 in
15:36 38.8 °F 30.2 °F 30.14 in ENE 9.8 mph 12.7 mph 71 % 0.00 in
15:41 38.7 °F 29.8 °F 30.13 in NE 8.1 mph 13.8 mph 70 % 0.00 in
15:46 38.6 °F 30.0 °F 30.13 in ENE 9.1 mph 14.0 mph 71 % 0.00 in
15:49 38.6 °F 30.0 °F 30.13 in ENE 9.7 mph 13.8 mph 71 % 0.00 in
15:54 38.5 °F 29.9 °F 30.13 in ENE 9.1 mph 13.8 mph 71 % 0.00 in
15:59 38.5 °F 30.3 °F 30.12 in ENE 8.1 mph 13.8 mph 72 % 0.00 in
16:04 38.5 °F 30.6 °F 30.12 in East 8.9 mph 12.7 mph 73 % 0.00 in
16:09 38.5 °F 30.3 °F 30.12 in ENE 8.9 mph 11.5 mph 72 % 0.00 in
16:13 38.4 °F 30.5 °F 30.12 in ENE 12.0 mph 17.3 mph 73 % 0.00 in
16:17 38.4 °F 30.5 °F 30.12 in East 9.6 mph 13.8 mph 73 % 0.00 in
16:20 38.4 °F 30.5 °F 30.12 in NE 9.7 mph 11.5 mph 73 % 0.00 in
16:25 38.3 °F 30.1 °F 30.11 in ENE 9.0 mph 15.0 mph 72 % 0.00 in
16:28 38.3 °F 30.4 °F 30.12 in NE 10.7 mph 13.8 mph 73 % 0.00 in
16:33 38.2 °F 30.6 °F 30.12 in NE 8.1 mph 11.5 mph 74 % 0.00 in
16:37 38.2 °F 30.3 °F 30.12 in ENE 8.6 mph 12.7 mph 73 % 0.00 in
16:43 38.1 °F 30.2 °F 30.12 in ENE 7.2 mph 10.4 mph 73 % 0.00 in
16:48 38.0 °F 30.4 °F 30.12 in East 7.6 mph 10.4 mph 74 % 0.00 in
16:53 38.0 °F 30.4 °F 30.12 in ENE 8.4 mph 11.5 mph 74 % 0.00 in
16:56 38.0 °F 30.4 °F 30.12 in ENE 7.5 mph 11.5 mph 74 % 0.00 in
17:01 38.0 °F 30.4 °F 30.11 in ENE 7.3 mph 11.5 mph 74 % 0.00 in
17:06 38.1 °F 30.9 °F 30.11 in ENE 6.2 mph 11.5 mph 75 % 0.00 in
17:09 38.1 °F 30.9 °F 30.11 in ENE 7.3 mph 12.0 mph 75 % 0.00 in
17:14 38.2 °F 31.3 °F 30.12 in ENE 5.8 mph 10.0 mph 76 % 0.00 in
17:16 38.2 °F 31.3 °F 30.12 in ENE 7.1 mph 11.5 mph 76 % 0.00 in
17:21 38.3 °F 31.1 °F 30.11 in ENE 7.2 mph 11.5 mph 75 % 0.00 in
17:26 38.4 °F 31.5 °F 30.11 in ENE 5.6 mph 10.4 mph 76 % 0.00 in
17:31 38.5 °F 31.9 °F 30.11 in ENE 6.1 mph 8.1 mph 77 % 0.00 in
17:35 38.5 °F 31.9 °F 30.11 in ENE 6.9 mph 9.2 mph 77 % 0.00 in
17:36 38.5 °F 31.9 °F 30.10 in East 6.4 mph 9.2 mph 77 % 0.00 in
17:41 38.6 °F 31.7 °F 30.10 in ESE 2.6 mph 5.8 mph 76 % 0.00 in
17:46 38.6 °F 31.3 °F 30.11 in ESE 3.0 mph 6.0 mph 75 % 0.00 in
17:51 38.5 °F 30.9 °F 30.10 in East 2.0 mph 4.6 mph 74 % 0.00 in
17:56 38.4 °F 30.5 °F 30.11 in East 2.6 mph 5.8 mph 73 % 0.00 in
18:00 38.4 °F 30.5 °F 30.11 in East 1.7 mph 3.5 mph 73 % 0.00 in
18:05 38.3 °F 30.4 °F 30.10 in East 6.0 mph 7.0 mph 73 % 0.00 in
18:11 38.3 °F 30.4 °F 30.10 in East 4.5 mph 8.0 mph 73 % 0.00 in
18:16 38.3 °F 30.4 °F 30.10 in East 2.0 mph 7.0 mph 73 % 0.00 in
18:18 38.2 °F 30.3 °F 30.10 in ENE 4.4 mph 6.9 mph 73 % 0.00 in
18:23 38.2 °F 30.3 °F 30.09 in East 6.0 mph 8.1 mph 73 % 0.00 in
18:28 38.3 °F 30.4 °F 30.09 in East 5.7 mph 8.1 mph 73 % 0.00 in
18:30 38.3 °F 30.4 °F 30.10 in East 5.2 mph 8.1 mph 73 % 0.00 in
18:33 38.3 °F 30.4 °F 30.09 in East 6.5 mph 8.1 mph 73 % 0.00 in
18:38 38.4 °F 30.5 °F 30.08 in East 5.2 mph 6.9 mph 73 % 0.00 in
18:43 38.5 °F 30.6 °F 30.09 in East 4.5 mph 7.0 mph 73 % 0.00 in
18:45 38.5 °F 30.6 °F 30.09 in East 7.1 mph 9.0 mph 73 % 0.00 in
18:48 38.6 °F 30.7 °F 30.09 in East 7.0 mph 9.2 mph 73 % 0.00 in
18:53 38.6 °F 30.7 °F 30.08 in East 7.4 mph 9.2 mph 73 % 0.00 in
18:58 38.6 °F 31.0 °F 30.08 in East 7.9 mph 9.2 mph 74 % 0.00 in
19:01 38.7 °F 31.1 °F 30.09 in East 6.7 mph 9.2 mph 74 % 0.00 in
19:04 38.7 °F 30.8 °F 30.09 in East 6.2 mph 10.4 mph 73 % 0.00 in
19:09 38.8 °F 30.9 °F 30.08 in ENE 6.0 mph 8.1 mph 73 % 0.00 in
19:14 38.8 °F 31.2 °F 30.08 in ENE 8.6 mph 12.7 mph 74 % 0.00 in
19:19 38.9 °F 32.0 °F 30.07 in East 9.3 mph 12.7 mph 76 % 0.00 in
19:23 38.9 °F 32.0 °F 30.07 in ENE 7.4 mph 9.2 mph 76 % 0.00 in
19:29 38.9 °F 32.0 °F 30.07 in East 7.4 mph 10.4 mph 76 % 0.00 in
19:34 38.9 °F 32.0 °F 30.07 in East 8.6 mph 12.7 mph 76 % 0.00 in
19:35 38.9 °F 32.0 °F 30.06 in ENE 8.2 mph 10.4 mph 76 % 0.00 in
19:40 38.9 °F 31.6 °F 30.07 in East 8.5 mph 12.7 mph 75 % 0.00 in
19:43 39.0 °F 31.7 °F 30.07 in East 8.9 mph 13.8 mph 75 % 0.00 in
19:48 39.0 °F 32.1 °F 30.06 in East 8.5 mph 11.5 mph 76 % 0.00 in
19:49 39.0 °F 32.1 °F 30.06 in East 7.7 mph 9.2 mph 76 % 0.00 in
19:51 39.1 °F 32.5 °F 30.06 in East 8.2 mph 10.4 mph 77 % 0.00 in
19:56 39.1 °F 32.5 °F 30.06 in East 9.3 mph 11.5 mph 77 % 0.00 in
20:01 39.1 °F 32.5 °F 30.05 in East 8.1 mph 11.5 mph 77 % 0.00 in
20:04 39.1 °F 32.5 °F 30.05 in East 8.2 mph 12.7 mph 77 % 0.00 in
20:06 39.1 °F 32.5 °F 30.05 in East 8.6 mph 12.7 mph 77 % 0.00 in
20:11 39.1 °F 32.5 °F 30.05 in East 10.4 mph 12.7 mph 77 % 0.00 in
20:12 39.1 °F 32.5 °F 30.05 in East 8.1 mph 12.7 mph 77 % 0.00 in
20:17 39.0 °F 32.7 °F 30.05 in ENE 9.0 mph 14.0 mph 78 % 0.00 in
20:20 39.0 °F 32.7 °F 30.05 in East 9.7 mph 11.5 mph 78 % 0.00 in
20:24 38.9 °F 32.6 °F 30.04 in ENE 9.2 mph 11.5 mph 78 % 0.00 in
20:26 38.9 °F 32.9 °F 30.04 in East 10.0 mph 15.0 mph 79 % 0.00 in
20:31 38.8 °F 32.8 °F 30.03 in East 11.1 mph 13.8 mph 79 % 0.00 in
20:36 38.7 °F 32.7 °F 30.03 in East 11.7 mph 15.0 mph 79 % 0.00 in
20:41 38.7 °F 32.7 °F 30.03 in East 10.5 mph 15.0 mph 79 % 0.00 in
20:42 38.7 °F 33.1 °F 30.03 in East 10.5 mph 14.0 mph 80 % 0.00 in
20:43 38.7 °F 33.1 °F 30.03 in East 10.8 mph 13.8 mph 80 % 0.00 in
20:48 38.6 °F 33.0 °F 30.02 in ENE 11.4 mph 15.0 mph 80 % 0.00 in
20:50 38.5 °F 32.9 °F 30.01 in ENE 10.3 mph 14.0 mph 80 % 0.00 in
20:53 38.6 °F 33.3 °F 30.01 in ENE 9.5 mph 15.0 mph 81 % 0.00 in
20:56 38.5 °F 33.2 °F 30.01 in ENE 10.9 mph 14.0 mph 81 % 0.00 in
21:01 38.3 °F 33.0 °F 30.01 in ENE 10.8 mph 15.0 mph 81 % 0.00 in
21:06 38.3 °F 33.3 °F 30.01 in ENE 11.7 mph 16.1 mph 82 % 0.00 in
21:09 38.3 °F 33.3 °F 30.01 in ENE 8.7 mph 12.7 mph 82 % 0.00 in
21:12 38.2 °F 33.2 °F 30.01 in East 11.4 mph 16.0 mph 82 % 0.00 in
21:17 38.2 °F 32.9 °F 30.00 in East 10.2 mph 15.0 mph 81 % 0.00 in
21:20 38.1 °F 32.8 °F 30.01 in East 8.2 mph 13.8 mph 81 % 0.00 in
21:25 38.0 °F 32.7 °F 30.00 in East 12.0 mph 16.1 mph 81 % 0.00 in
21:29 37.9 °F 32.6 °F 30.00 in East 10.5 mph 17.3 mph 81 % 0.00 in
21:34 37.8 °F 32.5 °F 30.00 in East 11.2 mph 16.1 mph 81 % 0.00 in
21:40 37.5 °F 32.8 °F 30.00 in East 10.3 mph 12.7 mph 83 % 0.00 in
21:44 37.3 °F 33.2 °F 29.99 in East 9.0 mph 11.5 mph 85 % 0.00 in
21:49 37.1 °F 33.6 °F 29.99 in East 9.9 mph 13.8 mph 87 % 0.00 in
21:50 37.1 °F 33.6 °F 29.99 in East 10.5 mph 11.5 mph 87 % 0.00 in
21:55 37.0 °F 33.8 °F 29.98 in ENE 11.4 mph 15.0 mph 88 % 0.00 in
21:59 36.9 °F 33.7 °F 29.98 in East 10.5 mph 15.0 mph 88 % 0.00 in
22:04 36.8 °F 33.6 °F 29.98 in ENE 10.3 mph 13.8 mph 88 % 0.00 in
22:07 36.8 °F 33.9 °F 29.97 in East 10.5 mph 15.0 mph 89 % 0.00 in
22:13 36.8 °F 34.1 °F 29.96 in East 9.9 mph 16.1 mph 90 % 0.00 in
22:17 36.8 °F 34.1 °F 29.96 in East 11.8 mph 17.3 mph 90 % 0.00 in
22:22 36.8 °F 34.1 °F 29.95 in East 10.5 mph 15.0 mph 90 % 0.00 in
22:27 36.7 °F 34.0 °F 29.95 in East 12.3 mph 15.0 mph 90 % 0.00 in
22:29 36.7 °F 34.0 °F 29.95 in East 9.5 mph 12.7 mph 90 % 0.00 in
22:30 36.7 °F 34.3 °F 29.95 in East 11.2 mph 12.7 mph 91 % 0.00 in
22:35 36.7 °F 34.3 °F 29.94 in East 11.4 mph 17.3 mph 91 % 0.00 in
22:38 36.7 °F 34.3 °F 29.94 in East 11.7 mph 15.0 mph 91 % 0.00 in
22:41 36.8 °F 34.4 °F 29.94 in East 11.7 mph 16.1 mph 91 % 0.00 in
22:46 36.8 °F 34.7 °F 29.93 in East 9.3 mph 13.8 mph 92 % 0.00 in
22:48 36.8 °F 34.7 °F 29.93 in East 11.4 mph 16.1 mph 92 % 0.00 in
22:54 36.9 °F 34.8 °F 29.92 in ENE 12.1 mph 15.0 mph 92 % 0.00 in
22:57 36.9 °F 34.8 °F 29.92 in East 11.4 mph 15.0 mph 92 % 0.00 in
23:02 37.1 °F 35.0 °F 29.92 in East 9.4 mph 13.0 mph 92 % 0.00 in
23:04 37.1 °F 35.0 °F 29.92 in ENE 8.6 mph 11.5 mph 92 % 0.00 in
23:09 37.1 °F 35.0 °F 29.91 in ENE 10.8 mph 18.4 mph 92 % 0.00 in
23:10 37.1 °F 35.0 °F 29.91 in ENE 9.8 mph 15.0 mph 92 % 0.00 in
23:15 37.1 °F 35.3 °F 29.90 in NE 11.3 mph 17.3 mph 93 % 0.00 in
23:18 37.1 °F 35.0 °F 29.90 in ENE 10.0 mph 15.0 mph 92 % 0.00 in
23:21 36.9 °F 35.1 °F 29.90 in ENE 12.1 mph 17.3 mph 93 % 0.00 in
23:26 36.9 °F 35.1 °F 29.90 in ENE 8.3 mph 12.7 mph 93 % 0.00 in
23:27 37.0 °F 35.2 °F 29.89 in ENE 12.2 mph 14.0 mph 93 % 0.00 in
23:32 37.0 °F 35.2 °F 29.88 in East 10.8 mph 17.3 mph 93 % 0.00 in
23:33 37.1 °F 35.5 °F 29.88 in East 10.5 mph 15.0 mph 94 % 0.00 in
23:38 37.2 °F 35.6 °F 29.88 in ENE 11.4 mph 17.3 mph 94 % 0.00 in
23:39 37.2 °F 35.6 °F 29.88 in ENE 10.3 mph 13.8 mph 94 % 0.00 in
23:45 37.4 °F 35.8 °F 29.86 in ENE 11.1 mph 15.0 mph 94 % 0.00 in
23:49 37.4 °F 35.8 °F 29.86 in East 9.9 mph 12.7 mph 94 % 0.00 in
23:54 37.5 °F 35.9 °F 29.85 in ENE 10.5 mph 15.0 mph 94 % 0.00 in
23:57 37.6 °F 36.0 °F 29.85 in East 11.1 mph 14.0 mph 94 % 0.00 in
Crab Meadow Weather
Compliments of Weather Underground - 3.5 mb

Script developed by  Jim McMurry - jmcmurry@mwt.net Adapted for the template by  Wim van der Kuil - Leuven-Template.eu

Weather Terms: Hail - Precipitation in the form of lumps of ice that form during some thunderstorms.